Showing default

AETHER-7, 67378

Orbit data source: Space-Track

AETHER-7, 67378 is a payload satellite owned by Kepler Comms (CA) in SSO that was launched on Sun, 11 Jan 2026 UTC via an FALCON 9 launch vehicle from the Air Force Western Test Range (AFWTR). Payload-class satellites include a variety of spacecraft equipped with specific instruments for various scientific and technological missions. These include communications satellites like Starlink; space stations such as the ISS; scientific satellites like the Hubble; Earth observation satellites from companies like Planet Labs, Umbra, and HawkEye 360; GPS; miniature CubeSats for education and research; and military/defense satellites.

Loading next visibility...
Identifier
67378, 2026-004R
Orbit
SSO
Country
Flag of CACA
Related business
Manufacturer
Kepler Comms
Mission
Operational Commercial Communications
Bus & Motor
KEPLER GEN2B, Unknown motor
Mass
300 kg wet, 300 kg dry
Launch date (UTC)
2026-01-11 (8 months ago)
Launch vehicle
FALCON 9
Launch site
Air Force Western Test Range (AFWTR)
Object type
Payload
Rocket body
Debris
Shape & HBR
Box + 2 Pan, 7.6 m
Radar Cross Section
4.448 m², Large (>1 m²)

Expand to show TLE details & history
Last TLE update: 18 hours ago

TLE from 18 hours ago
0 AETHER-7
1 67378U 26004R   26264.02279281  .00000981  00000-0  11703-3 0  9997
2 67378  97.8084 260.7504 0003449 148.3913 211.7511 14.86490813 37510
Epoch: 2026-09-21T00:32Z
TLE epoch observation values (Epoch: 2026-09-21T00:32:49.298Z)
Latitude
0.00001°
Longitude
-107.36359°
Altitude
613.993 km
Speed
7.551 km/s
True Right ascension
17h 23m 00s
True Declination
0° 00' 00"
Sunlit
Object was in daylight at epoch
Visualization orbit readout
Latitude
Unknown
Longitude
Unknown
Altitude
Unknown
Speed
Unknown
Apparent Right ascension
Unknown
Apparent Declination
Unknown
Sunlit
N/A
Visualization observer readout
Local Sidereal Time
11:31:52
Azimuth
Unknown
Elevation
Unknown
Doppler factor
Unknown
Orbital elements
Apogee altitude
608.347 km
Perigee altitude
603.53 km
Semi-major axis
6,984.075 km
Eccentricity
0.00034
Inclination
97.8084°
RAAN
260.7504°
Arg. of periapsis
148.3913°
True anomaly
211.73031°
Mean anomaly
211.7511°
Eccentric anomaly
211.7407°
Mean motion
3.7186 °/min
Orbital period
96.81 mins
BSTAR
0.00011703
Loading maneuver chart data...
Computing Atmospheric mass density...
Loading historical data...
Loading historical data...
Loading historical data...
Loading historical data...
Loading historical data...
Loading historical data...
Loading historical data...

Documentation

Showing up to 5 results
|